Location: Chavannes
(47.1090°N, 0.2226°W)
Time: 04:14:28
(UTC+00:00)

Cosmos 1544 Rocket - Pass Details

Date: 16 October 2021
Orbit: 603 x 632 km, 82.5° (Epoch: 03 December)

Event Time Altitude Azimuth Distance (km) Brightness Sun altitude
Rises 18:20:54 0° 158° (SSE) 2,906 6.8 -12.6°
Reaches altitude 10° 18:23:22 10° 147° (SSE) 2,007 5.9 -13.0°
Maximum altitude 18:27:08 28° 89° (E) 1,200 4.4 -13.6°
Drops below altitude 10° 18:30:56 10° 31° (NNE) 2,024 5.9 -14.3°
Sets 18:33:26 0° 20° (NNE) 2,937 6.9 -14.7°
